DW9636 Weather Reports


Display with metric or nautical units.
time (UTC)temp
F
wind
direction
speed
MPH
gust
MPH
rain 1hr
in
rain 24hr
in
rain mn
in
humidity
%
barometer
mb
20260902230048 51 156 0.0 0.0 0.00 0.00 0.12 92 1006.3
20260902224550 51 202 0.0 0.0 0.00 0.00 0.12 92 1006.3
20260902223047 51 175 0.0 0.0 0.00 0.00 0.11 92 1006.1
20260902221547 51 173 0.0 0.0 0.00 0.00 0.11 92 1006.0
20260902220047 51 202 0.0 0.0 0.00 0.00 0.11 92 1005.9
20260902214548 51 202 0.0 0.0 0.00 0.00 0.11 93 1005.8
20260902213045 50 202 0.0 0.0 0.00 0.00 0.11 92 1006.2
20260902211545 50 202 0.0 0.0 0.00 0.00 0.11 92 1006.2
20260902210055 50 202 0.0 0.0 0.00 0.00 0.10 92 1005.9
20260902204544 49 202 0.0 0.0 0.00 0.00 0.09 92 1005.9
20260902203042 49 110 0.0 0.0 0.00 0.00 0.08 92 1006.0
20260902201541 49 100 0.0 0.0 0.00 0.00 0.08 92 1006.0
20260902200041 48 221 0.0 0.0 0.00 0.00 0.08 91 1006.0
20260902194541 48 254 0.0 0.0 0.00 0.00 0.07 91 1006.1
20260902193040 48 254 0.0 0.0 0.00 0.00 0.06 90 1006.0
20260902191539 49 254 0.0 0.0 0.00 0.00 0.05 88 1006.1
20260902190038 49 198 0.0 0.0 0.00 0.00 0.04 88 1006.0
20260902184537 50 208 0.0 0.0 0.00 0.00 0.02 85 1005.9
20260902183037 51 210 1.0 0.0 0.00 0.00 0.01 79 1005.8
20260902181536 53 209 1.0 0.0 0.00 0.00 0.00 73 1005.4
20260902180035 55 196 2.0 0.0 0.00 0.00 0.00 66 1005.1
20260902174535 55 194 0.0 0.0 0.00 0.00 0.00 64 1004.9
20260902173037 55 156 1.0 0.0 0.00 0.00 0.00 64 1004.9
20260902171531 54 188 0.0 0.0 0.00 0.00 0.00 67 1004.9
20260902170030 54 163 1.0 0.0 0.00 0.00 0.00 68 1004.9
20260902164533 53 164 0.0 0.0 0.00 0.00 0.00 69 1005.0
20260902163029 53 200 0.0 0.0 0.00 0.00 0.00 69 1004.9
20260902161527 54 172 0.0 0.0 0.00 0.00 0.00 70 1005.0
20260902160024 53 213 0.0 0.0 0.00 0.00 0.00 73 1005.0
20260902154521 53 231 0.0 0.0 0.00 0.00 0.00 75 1005.1
20260902153021 52 272 0.0 0.0 0.00 0.00 0.00 78 1005.5
20260902151514 51 188 0.0 0.0 0.00 0.00 0.00 81 1005.8
20260902150010 49 265 0.0 0.0 0.00 0.00 0.00 85 1006.0
20260902144514 49 286 0.0 0.0 0.00 0.00 0.00 86 1006.1
20260902143007 48 286 0.0 0.0 0.00 0.00 0.00 86 1006.1
20260902141505 48 287 0.0 0.0 0.00 0.00 0.00 86 1006.3
20260902140006 48 287 0.0 0.0 0.00 0.00 0.00 86 1006.2
20260902134508 48 287 0.0 0.0 0.00 0.00 0.00 87 1006.2
20260902133004 48 287 0.0 0.0 0.00 0.00 0.00 86 1006.3
20260902131502 48 287 0.0 0.0 0.00 0.00 0.00 86 1006.4
20260902130001 48 287 0.0 0.0 0.00 0.00 0.00 86 1006.3
20260902124608 49 287 0.0 0.0 0.00 0.00 0.00 85 1006.4
20260902123101 49 287 0.0 0.0 0.00 0.00 0.00 83 1006.6
20260902121603 49 287 0.0 0.0 0.00 0.00 0.00 83 1006.7
20260902120056 49 287 0.0 0.0 0.00 0.00 0.00 84 1006.8
20260902114558 49 287 0.0 0.0 0.00 0.00 0.00 84 1006.9
20260902113058 49 287 0.0 0.0 0.00 0.00 0.00 84 1007.0
20260902111552 48 287 0.0 0.0 0.00 0.00 0.00 85 1007.1
20260902110052 48 287 0.0 0.0 0.00 0.00 0.00 85 1007.0
20260902104556 48 287 0.0 0.0 0.00 0.00 0.00 84 1007.0
20260902103057 48 287 0.0 0.0 0.00 0.00 0.00 83 1007.1
20260902101548 49 287 0.0 0.0 0.00 0.00 0.00 84 1007.1
20260902100104 49 287 0.0 0.0 0.00 0.00 0.00 84 1007.3
20260902094547 48 287 0.0 0.0 0.00 0.00 0.00 83 1007.5
20260902093046 48 287 0.0 0.0 0.00 0.00 0.00 84 1007.5
20260902091604 48 287 0.0 0.0 0.00 0.00 0.00 84 1007.7
20260902090045 47 287 0.0 0.0 0.00 0.00 0.00 84 1007.7
20260902084545 48 287 0.0 0.0 0.00 0.00 0.00 83 1007.8
20260902083041 48 287 0.0 0.0 0.00 0.00 0.00 82 1007.7
20260902081541 49 287 0.0 0.0 0.00 0.00 0.00 82 1007.7
20260902080055 49 287 0.0 0.0 0.00 0.00 0.00 83 1007.6
20260902074538 49 287 0.0 0.0 0.00 0.00 0.00 82 1007.5
20260902073036 49 287 0.0 0.0 0.00 0.00 0.00 82 1007.4
20260902071552 48 287 0.0 0.0 0.00 0.00 0.00 82 1007.3
20260902070032 48 287 0.0 0.0 0.00 0.00 0.00 82 1007.5
20260902064532 48 287 0.0 0.0 0.00 0.00 0.00 82 1007.4
20260902063041 48 287 0.0 0.0 0.00 0.00 0.00 82 1007.3
20260902061541 49 287 0.0 0.0 0.00 0.00 0.00 81 1007.4
20260902060034 49 287 0.0 0.0 0.00 0.00 0.00 80 1007.6
20260902054540 50 287 0.0 0.0 0.00 0.00 0.00 79 1007.7
20260902053029 51 287 0.0 0.0 0.00 0.00 0.00 78 1007.7
20260902051531 52 287 0.0 0.0 0.00 0.00 0.00 78 1007.7
20260902050033 52 287 0.0 0.0 0.00 0.00 0.00 77 1007.6
20260902044531 53 287 0.0 0.0 0.00 0.00 0.00 75 1007.6
20260902043026 54 287 0.0 0.0 0.00 0.00 0.00 74 1007.6
20260902041532 54 287 0.0 0.0 0.00 0.00 0.00 73 1007.2
20260902040022 55 287 0.0 0.0 0.00 0.00 0.00 72 1006.9
20260902034522 56 287 0.0 0.0 0.00 0.00 0.00 70 1006.7
20260902033020 56 287 0.0 0.0 0.00 0.00 0.00 69 1006.6
20260902031520 57 287 0.0 0.0 0.00 0.00 0.00 67 1006.3
20260902030020 58 287 0.0 0.0 0.00 0.00 0.00 66 1006.0
20260902024519 58 287 0.0 0.0 0.00 0.00 0.00 64 1005.8
20260902023020 59 287 0.0 0.0 0.00 0.00 0.00 62 1005.8
20260902021525 61 279 0.0 0.0 0.00 0.00 0.00 60 1005.6
20260902020020 61 248 0.0 0.0 0.00 0.00 0.00 59 1005.3
20260902014527 62 333 0.0 0.0 0.00 0.00 0.00 57 1005.2
20260902013017 64 210 0.0 0.0 0.00 0.00 0.00 53 1005.1
20260902011548 65 319 0.0 0.0 0.00 0.00 0.00 50 1004.9
20260902000046 67 317 1.0 0.0 0.00 0.00 0.00 45 1004.5
20260901234541 67 241 0.0 0.0 0.00 0.00 0.00 44 1004.3
20260901233051 68 355 0.0 0.0 0.00 0.00 0.00 44 1004.4
20260901231549 70 259 1.0 0.0 0.00 0.00 0.00 41 1004.1